Total_Precipitation_Accumulation
0.07 0.08 0.16 0.12 0.09 0.12 0.15 0.14 0.14 0.13 0.11 0.11 0.10 0.08 0.06 0.05 0.05 0.07 0.07 0.09 0.11 0.14 0.17 0.21 0.22 0.26 0.29 0.26 0.27 0.24 0.25 0.23 0.30 0.39 0.44 0.42 0.45 0.59 0.82 0.87 0.91 0.60 0.52
0.02 0.04 0.11 0.10 0.08 0.11 0.14 0.14 0.15 0.15 0.13 0.10 0.09 0.09 0.10 0.09 0.07 0.08 0.11 0.12 0.12 0.14 0.15 0.18 0.20 0.21 0.23 0.22 0.20 0.19 0.25 0.32 0.42 0.55 0.56 0.46 0.47 0.62 0.74 0.73 0.90 0.56 0.47
0.04 0.04 0.08 0.10 0.10 0.11 0.13 0.14 0.16 0.17 0.15 0.12 0.11 0.12 0.13 0.10 0.08 0.10 0.12 0.13 0.12 0.14 0.14 0.16 0.17 0.16 0.18 0.17 0.18 0.21 0.30 0.43 0.61 0.71 0.81 0.53 0.36 0.60 0.68 0.68 0.62 0.51 0.49
0.07 0.04 0.04 0.08 0.11 0.11 0.12 0.14 0.16 0.15 0.14 0.13 0.16 0.16 0.15 0.10 0.09 0.10 0.12 0.13 0.13 0.13 0.13 0.12 0.13 0.12 0.13 0.13 0.17 0.26 0.37 0.50 0.64 0.89 1.02 0.53 0.30 0.41 0.51 0.53 0.48 0.46 0.42
0.08 0.05 0.06 0.08 0.09 0.11 0.13 0.14 0.16 0.16 0.15 0.15 0.19 0.21 0.19 0.13 0.13 0.13 0.13 0.12 0.12 0.12 0.11 0.10 0.11 0.11 0.11 0.13 0.18 0.27 0.37 0.49 0.68 0.82 0.65 0.58 0.56 0.43 0.40 0.45 0.45 0.44 0.37
0.10 0.07 0.09 0.11 0.11 0.11 0.12 0.14 0.19 0.22 0.18 0.19 0.20 0.20 0.20 0.17 0.19 0.17 0.13 0.12 0.13 0.13 0.12 0.10 0.10 0.11 0.11 0.14 0.20 0.28 0.39 0.55 0.67 0.52 0.43 0.42 0.46 0.44 0.41 0.54 0.57 0.53 0.44
0.15 0.09 0.11 0.14 0.13 0.12 0.12 0.13 0.16 0.20 0.21 0.23 0.23 0.19 0.17 0.15 0.15 0.15 0.13 0.12 0.12 0.12 0.11 0.11 0.11 0.14 0.16 0.18 0.22 0.30 0.44 0.61 0.55 0.43 0.42 0.47 0.48 0.40 0.49 0.71 0.85 0.76 0.62
0.26 0.17 0.17 0.20 0.17 0.16 0.15 0.15 0.16 0.16 0.16 0.17 0.18 0.17 0.14 0.13 0.16 0.20 0.18 0.14 0.12 0.11 0.11 0.12 0.13 0.16 0.19 0.21 0.25 0.31 0.41 0.45 0.33 0.34 0.35 0.42 0.36 0.35 0.60 0.81 0.96 0.95 0.85
0.43 0.27 0.24 0.23 0.21 0.22 0.26 0.22 0.20 0.20 0.19 0.20 0.21 0.20 0.18 0.17 0.18 0.20 0.23 0.20 0.17 0.18 0.18 0.17 0.14 0.16 0.20 0.22 0.26 0.32 0.39 0.44 0.39 0.44 0.42 0.42 0.37 0.54 0.90 1.02 1.02 1.03 0.98
0.82 0.56 0.40 0.32 0.30 0.26 0.24 0.26 0.26 0.26 0.25 0.23 0.22 0.22 0.23 0.23 0.23 0.25 0.25 0.27 0.29 0.32 0.33 0.27 0.24 0.24 0.24 0.25 0.30 0.37 0.41 0.45 0.52 0.53 0.50 0.38 0.43 0.71 1.05 1.18 1.20 1.16 1.07
0.99 0.77 0.61 0.47 0.39 0.34 0.28 0.29 0.35 0.36 0.35 0.32 0.35 0.33 0.35 0.40 0.46 0.51 0.48 0.54 0.53 0.54 0.55 0.51 0.48 0.49 0.46 0.38 0.44 0.54 0.51 0.54 0.63 0.59 0.48 0.38 0.53 0.81 1.11 1.25 1.27 1.25 1.14
1.15 0.98 0.84 0.66 0.51 0.45 0.44 0.53 0.64 0.56 0.56 0.55 0.66 0.69 0.75 0.91 0.89 0.64 0.70 0.94 1.04 1.10 1.05 1.02 1.01 0.86 0.74 0.66 1.04 1.23 0.68 0.68 0.73 0.66 0.58 0.59 0.82 1.09 1.36 1.31 1.24 1.25 1.16
1.53 1.32 1.10 0.92 0.76 0.66 0.79 0.71 0.76 0.87 0.93 0.92 0.95 1.00 1.10 1.10 0.93 0.80 0.90 1.15 1.39 1.47 1.36 1.58 1.61 1.23 1.29 1.48 1.49 1.36 0.97 1.11 1.09 0.99 0.87 1.00 1.21 1.50 1.89 1.71 1.40 1.26 1.18
1.75 1.63 1.57 1.33 1.15 1.19 1.14 0.88 0.82 0.87 0.95 1.06 1.26 1.27 1.33 1.47 1.39 1.32 1.34 1.40 1.56 1.73 1.93 1.96 2.07 1.94 1.88 1.81 1.78 1.65 1.45 1.48 1.44 1.55 1.49 1.40 1.46 1.69 2.16 2.14 1.72 1.44 1.27
1.93 1.88 1.85 1.79 1.63 1.67 1.44 1.25 1.10 1.17 1.20 1.25 1.34 1.46 1.46 1.67 1.79 1.77 1.69 1.65 1.63 1.74 1.90 2.03 2.09 2.40 2.53 2.20 1.82 1.71 1.68 1.74 1.67 1.68 1.62 1.58 1.50 1.61 1.96 2.19 2.05 1.83 1.56
2.33 2.34 2.15 2.08 2.08 2.03 1.91 1.85 1.75 1.54 1.54 1.52 1.49 1.49 1.54 1.73 1.91 2.00 1.89 1.85 1.73 1.72 1.88 2.05 2.22 2.64 2.64 2.45 2.02 1.86 1.78 1.73 1.59 1.53 1.62 1.83 1.67 1.56 1.66 1.92 2.12 2.10 1.96
2.77 2.76 2.74 2.68 2.80 2.71 2.51 2.36 2.17 1.95 1.83 1.78 1.81 1.83 1.75 1.78 1.89 1.89 1.73 1.66 1.71 1.84 1.98 2.02 2.20 2.47 2.19 2.16 1.93 1.85 1.67 1.50 1.34 1.30 1.47 1.66 1.56 1.53 1.64 1.75 1.90 1.98 2.07
2.99 3.10 3.24 3.28 3.22 3.05 2.96 2.87 2.64 2.40 2.18 2.02 1.95 1.99 1.85 1.78 1.79 1.91 1.72 1.60 1.90 2.01 2.08 2.23 2.32 2.31 2.22 2.18 1.97 1.73 1.55 1.45 1.19 1.10 1.12 1.20 1.34 1.22 1.47 1.68 1.72 1.76 1.96
3.43 3.63 3.78 3.80 3.61 3.32 3.26 3.19 3.02 2.82 2.46 2.17 2.02 1.94 1.79 1.75 1.86 2.10 2.00 2.05 2.23 2.28 2.25 2.16 2.37 2.34 2.22 2.18 1.98 1.70 1.41 1.26 1.08 0.95 0.89 0.85 0.95 1.03 1.10 1.28 1.43 1.50 1.85
3.90 4.24 4.06 3.97 4.06 3.84 3.67 3.45 3.12 2.68 2.32 2.20 2.12 1.92 1.85 1.86 1.97 2.26 2.07 2.03 2.19 2.28 2.25 2.20 2.16 2.17 1.98 1.97 1.87 1.57 1.26 0.98 0.90 0.78 0.66 0.66 0.70 0.68 0.80 0.98 1.21 1.12 1.44
3.88 4.26 4.42 4.39 4.23 3.93 3.52 3.15 2.86 2.63 2.48 2.24 2.09 1.97 1.88 1.81 1.88 2.15 2.01 2.07 2.08 2.04 2.05 2.10 2.09 1.92 1.61 1.82 1.84 1.42 1.03 0.84 0.79 0.59 0.54 0.56 0.55 0.57 0.70 0.90 1.08 1.09 1.06
3.59 4.01 4.25 4.38 4.24 3.82 3.35 3.04 2.85 2.78 2.46 2.16 2.11 2.07 1.93 1.97 1.94 1.96 1.98 1.94 1.96 1.98 1.90 1.86 1.91 1.73 1.45 1.59 1.67 1.59 1.07 0.83 0.68 0.52 0.57 0.64 0.68 0.73 0.75 0.81 0.95 1.07 1.09
3.12 3.40 3.46 3.58 3.53 3.28 3.17 3.08 2.93 2.86 2.51 2.34 2.34 2.30 2.15 2.14 2.08 2.04 1.95 1.83 1.68 1.60 1.55 1.58 1.65 1.62 1.45 1.42 1.60 1.77 1.39 1.00 0.88 0.68 0.66 0.68 0.78 0.88 0.83 0.85 0.90 1.04 1.14
2.67 2.97 3.15 3.19 3.10 2.91 2.87 2.79 2.63 2.40 2.29 2.39 2.58 2.49 2.23 2.03 1.86 1.66 1.51 1.50 1.46 1.41 1.33 1.24 1.32 1.35 1.27 1.21 1.32 1.44 1.51 1.48 1.37 0.90 0.64 0.61 0.72 0.83 0.90 0.84 0.78 0.87 1.04
2.23 2.47 2.71 2.91 2.95 2.79 2.69 2.59 2.55 2.39 2.32 2.31 2.23 2.11 1.92 1.71 1.48 1.23 1.15 1.17 1.15 1.13 1.08 1.03 1.03 1.01 1.02 1.03 1.15 1.30 1.39 1.44 1.44 1.30 0.93 0.86 0.86 0.79 0.82 0.82 0.84 0.85 0.90
1.81 1.88 2.01 2.22 2.40 2.43 2.37 2.33 2.28 2.14 2.04 1.90 1.66 1.51 1.39 1.27 1.08 0.89 0.81 0.85 0.91 0.97 0.94 0.90 0.90 0.88 0.93 1.03 1.05 1.14 1.28 1.26 1.25 1.34 1.13 1.02 0.97 0.85 0.83 0.87 0.87 0.94 0.94